Regional Weather Roundup
Issued by NWS

Home | Current Version | Previous Version | Text Only | Print | Product List | Glossary Off
Versions: 1 2 3 4 5 6 7 8 9 10 11 12 13 14 15 16 17 18 19 20 21 22 23 24 25 26 27 28 29 30 31 32 33 34 35 36 37 38 39 40 41 42 43 44 45 46 47 48 49 50

000
ASUS43 KDTX 220601
RWRMI
MICHIGAN HOURLY REGIONAL WEATHER ROUNDUP
NATIONAL WEATHER SERVICE DETROIT/PONTIAC MI
200 AM EDT SUN APR 22 2018

NOTE: "FAIR" INDICATES FEW OR NO CLOUDS BELOW 12,000 FEET WITH NO
SIGNIFICANT WEATHER AND/OR OBSTRUCTION TO VISIBILITY.

MIZ047>049-052>055-059>063-066>070-074>076-081>083-220700-
SOUTHEAST LOWER MICHIGAN

CITY           SKY/WX    TMP DP  RH WIND       PRES   REMARKS
ADRIAN         FAIR      38  25  59 NE5       30.40F WCI  34
6HR MIN TEMP:  38; 6HR MAX TEMP:  50;

ALMA           FAIR      32  30  92 CALM      30.39S
6HR MIN TEMP:  32; 6HR MAX TEMP:  54;

ANN ARBOR      FAIR      34  28  79 CALM      30.40S
BAD AXE        FAIR      33  26  76 CALM      30.40F
6HR MIN TEMP:  33; 6HR MAX TEMP:  51;

CARO           FAIR      32  24  72 CALM      30.39F
DETROIT CITY   FAIR      38  26  62 CALM      30.41S
6HR MIN TEMP:  38; 6HR MAX TEMP:  49;

DETROIT        MOCLDY    40  23  50 CALM      30.41R
6HR MIN TEMP:  39; 6HR MAX TEMP:  50;

FLINT          FAIR      36  30  79 CALM      30.40S
6HR MIN TEMP:  35; 6HR MAX TEMP:  54;

GROSSE ILE     FAIR      34  30  86 CALM      30.39S
6HR MIN TEMP:  33; 6HR MAX TEMP:  42;

HILLSDALE      MOCLDY    41  19  42 CALM      30.38S
HOWELL         FAIR      38  28  66 CALM      30.39F
6HR MIN TEMP:  38; 6HR MAX TEMP:  53;


CITY           SKY/WX    TMP DP  RH WIND       PRES   REMARKS
JACKSON        FAIR      43  21  41 CALM      30.39F
6HR MIN TEMP:  43; 6HR MAX TEMP:  53;

LAMBERTVILLE   FAIR      38  30  72 CALM      30.39F
6HR MIN TEMP:  38; 6HR MAX TEMP:  49;

LANSING        FAIR      42  28  57 S5        30.40S
6HR MIN TEMP:  37; 6HR MAX TEMP:  56;

LAPEER         FAIR      33  29  86 CALM      30.40S
6HR MIN TEMP:  32; 6HR MAX TEMP:  52;

MASON          FAIR      42  21  44 S3        30.40S
6HR MIN TEMP:  41; 6HR MAX TEMP:  55;

MONROE         FAIR      36  32  85 CALM      30.39S
6HR MIN TEMP:  33; 6HR MAX TEMP:  45;

MT. CLEMENS    FAIR      35  32  91 CALM        N/A
6HR MIN TEMP:  35; 6HR MAX TEMP:  46;

PONTIAC        FAIR      37  27  67 CALM      30.39S
6HR MIN TEMP:  36; 6HR MAX TEMP:  53;

PORT HOPE        N/A     35  25  66 CALM      30.39S
6HR MIN TEMP:  35; 6HR MAX TEMP:  47;

PORT HURON     FAIR      32  27  80 CALM      30.41F
TRI CITIES     FAIR      42  29  59 S5        30.39S
6HR MIN TEMP:  41; 6HR MAX TEMP:  56;

MIDLAND        FAIR      34  31  88 CALM      30.39S
6HR MIN TEMP:  33; 6HR MAX TEMP:  55;

TROY           FAIR      41  23  48 CALM      30.41S
SAGINAW HB     FAIR      41  28  60 S3        30.39S
$$
MIZ043>046-050>051-056>058-064>065-071>073-077>080-220700-
SOUTHWEST LOWER MICHIGAN

CITY           SKY/WX    TMP DP  RH WIND       PRES   REMARKS
BATTLE CREEK   FAIR      47  27  45 S5        30.39S
6HR MIN TEMP:  45; 6HR MAX TEMP:  56;

BENTON HARBOR  FAIR      39  29  67 CALM      30.38S
6HR MIN TEMP:  39; 6HR MAX TEMP:  48;

BIG RAPIDS     FAIR      33  23  66 CALM      30.38S
6HR MIN TEMP:  32; 6HR MAX TEMP:  57;

COLDWATER      CLOUDY    46  26  44 E3        30.38F
6HR MIN TEMP:  46; 6HR MAX TEMP:  54;

FREMONT        FAIR      35  17  49 CALM      30.38S
6HR MIN TEMP:  34; 6HR MAX TEMP:  51;

HOLLAND        FAIR      38  26  62 CALM      30.39S
6HR MIN TEMP:  37; 6HR MAX TEMP:  49;

GRAND RAPIDS   FAIR      39  25  57 CALM      30.39S
6HR MIN TEMP:  38; 6HR MAX TEMP:  55;

IONIA          FAIR      42  25  49 CALM      30.38S
6HR MIN TEMP:  42; 6HR MAX TEMP:  55;

KALAMAZOO      FAIR      50  28  42 CALM      30.38S
6HR MIN TEMP:  48; 6HR MAX TEMP:  55;

LUDINGTON      FAIR      29  24  82 CALM      30.39S
6HR MIN TEMP:  28; 6HR MAX TEMP:  49;

MARSHALL       FAIR      43  24  46 SE3       30.38F
6HR MIN TEMP:  43; 6HR MAX TEMP:  51;

MOUNT PLEASANT FAIR      38  35  86 CALM      30.38S
6HR MIN TEMP:  37; 6HR MAX TEMP:  58;

MUSKEGON       FAIR      33  22  63 CALM      30.39S
6HR MIN TEMP:  32; 6HR MAX TEMP:  50;

SOUTH HAVEN    FAIR      40  29  66 CALM      30.38S
$$
MIZ016>042-220700-
NORTHERN LOWER MICHIGAN

CITY           SKY/WX    TMP DP  RH WIND       PRES   REMARKS
ALPENA         FAIR      29  26  89 CALM      30.40F
6HR MIN TEMP:  28; 6HR MAX TEMP:  46;

BEAVER ISLAND  FAIR      29  24  81 CALM      30.40S
6HR MIN TEMP:  28; 6HR MAX TEMP:  49;

BELLAIRE       FAIR      28  24  87 CALM      30.41F
6HR MIN TEMP:  28; 6HR MAX TEMP:  53;

CADILLAC       FAIR      28  23  80 CALM      30.36F
CHARLEVOIX     FAIR      30  24  79 CALM      30.44S
6HR MIN TEMP:  30; 6HR MAX TEMP:  50;

FRANKFORT      FAIR      30  22  71 CALM      30.40S
GAYLORD        FAIR      31  21  66 CALM      30.39S
6HR MIN TEMP:  28; 6HR MAX TEMP:  52;

GRAYLING       FAIR      27  20  75 CALM      30.38F
6HR MIN TEMP:  26; 6HR MAX TEMP:  51;

HARBOR SPRINGS FAIR      31  21  64 CALM      30.40F
HOUGHTON LAKE  FAIR      30  24  78 CALM      30.39S
6HR MIN TEMP:  30; 6HR MAX TEMP:  53;

MANISTEE       FAIR      27  22  81 E3        30.39F
OSCODA         FAIR      29  20  71 CALM      30.40F
6HR MIN TEMP:  28; 6HR MAX TEMP:  46;

PELLSTON       FAIR      28  22  78 CALM      30.41S
6HR MIN TEMP:  27; 6HR MAX TEMP:  52;

ROGERS CITY    FAIR      34  20  57 S3        30.40S
TRAVERSE CITY  FAIR      31  25  78 CALM      30.39F
6HR MIN TEMP:  31; 6HR MAX TEMP:  47;

$$
MIZ007>008-015-220700-
EASTERN UPPER MICHIGAN

CITY           SKY/WX    TMP DP  RH WIND       PRES   REMARKS
KINROSS        FAIR      38  18  44 CALM      30.39S
6HR MIN TEMP:  38; 6HR MAX TEMP:  51;

MACKINAC ISLAN FAIR      35  19  53 CALM      30.40S
6HR MIN TEMP:  33; 6HR MAX TEMP:  46;

NEWBERRY       FAIR      31  25  80 SW3       30.38S
6HR MIN TEMP:  31; 6HR MAX TEMP:  46;

S. S. MARIE    FAIR      35  20  54 CALM      30.39S
6HR MIN TEMP:  35; 6HR MAX TEMP:  52;

MUNISING         N/A     29  23  78 CALM      30.37F
6HR MIN TEMP:  29; 6HR MAX TEMP:  39;

$$
MIZ004>006-011>014-085-220700-
CENTRAL UPPER MICHIGAN

CITY           SKY/WX    TMP DP  RH WIND       PRES   REMARKS
MANISTIQUE     FAIR      27  25  94 CALM      30.38S
6HR MIN TEMP:  26; 6HR MAX TEMP:  39;

ESCANABA       FAIR      27  24  89 CALM      30.38F
6HR MIN TEMP:  27; 6HR MAX TEMP:  49;

MENOMINEE      FAIR      35  23  61 CALM      30.38F
6HR MIN TEMP:  33; 6HR MAX TEMP:  51;

SAWYER-GWINN   FAIR      29  19  67 CALM      30.36F
6HR MIN TEMP:  28; 6HR MAX TEMP:  46;

$$
MIZ001>003-009>011-084-220700-
WESTERN UPPER MICHIGAN

CITY           SKY/WX    TMP DP  RH WIND       PRES   REMARKS
IRON MOUNTAIN  FAIR      32  21  64 NW3       30.34S
6HR MIN TEMP:  29; 6HR MAX TEMP:  59;

HOUGHTON       FAIR      37  11  34 CALM      30.36R
6HR MIN TEMP:  32; 6HR MAX TEMP:  49;

COPPER HARBOR    N/A     39  17  41 SW12      30.36R WCI  32
6HR MIN TEMP:  33; 6HR MAX TEMP:  41;

IRONWOOD       FAIR      27  24  89 CALM      30.36F
6HR MIN TEMP:  27; 6HR MAX TEMP:  53;

$$

ABBREVIATIONS USED IN REMARKS
   TC - TEMPERATURE IN CELSIUS
  WCI - WIND CHILL INDEX
   HX - HEAT INDEX
  VSB - VISIBILITY





USA.gov is the U.S. government's official web portal to all federal, state and local government web resources and services.